Flight Track Log - Related Links

Times and Time Zones

All times are in EDT time to prevent confusion due to time zone crossing. See the SWA1096 flight status page for this flight to view local times or setup timezone preferences in your user account.

Time Position Orientation Groundspeed Altitude Reporting Facility
EDT Latitude Longitude Course Direction KTS MPH feet Rate Location/Type
Sun 03:39:32 PM 39.1500 -76.7500 90° East 236 272 3,500  Level Potomac TRACON
Sun 03:41:49 PM 39.0969 -76.5731 111° Southeast 252 290 10,000 2,893 Climbing Washington Center
Sun 03:42:49 PM 39.1167 -76.4450 79° East 303 349 13,000 2,420 Climbing Washington Center
Sun 03:43:48 PM 39.1322 -76.3114 81° East 336 387 14,800 2,924 Climbing Washington Center
Sun 03:44:00 PM 39.1667 -76.6058 90° East  Level FlightAware Approximate
Sun 03:44:48 PM 39.1622 -76.1539 76° East 391 450 18,800  Level Washington Center
Sun 03:45:48 PM 39.1794 -76.0067 81° East 414 476 21,700 2,100 Climbing Washington Center
Sun 03:46:48 PM 39.2089 -75.8622 75° East 419 482 23,000 1,200 Climbing Washington Center
Sun 03:47:48 PM 39.2906 -75.7553 45° Northeast 397 457 24,100 1,686 Climbing Washington Center
Sun 03:48:49 PM 39.3719 -75.6506 45° Northeast 402 463 26,400 2,250 Climbing Washington Center
Sun 03:49:48 PM 39.4553 -75.5431 45° Northeast 407 468 28,600 1,765 Climbing Washington Center
Sun 03:50:48 PM 39.5447 -75.4275 45° Northeast 425 489 29,900 1,250 Climbing Washington Center
Sun 03:51:48 PM 39.6361 -75.3058 46° Northeast 445 512 31,100 1,240 Climbing Washington Center
Sun 03:52:49 PM 39.7294 -75.1761 47° Northeast 464 534 32,400 1,400 Climbing Washington Center
Sun 03:53:48 PM 39.8269 -75.0350 48° Northeast 511 588 33,900 1,427 Climbing Washington Center
Sun 03:55:12 PM 39.9489 -74.8597 48° Northeast 540 621 35,800 465 Climbing New York Center
Sun 03:56:10 PM 40.0539 -74.7111 47° Northeast 517 595 35,000 -403 Descending New York Center
Sun 03:57:11 PM 40.1369 -74.5936 47° Northeast 496 571 35,000  Level New York Center
Sun 03:58:12 PM 40.2458 -74.4475 46° Northeast 496 571 35,000  Level New York Center
Sun 03:59:11 PM 40.3536 -74.3333 39° Northeast 496 571 35,000  Level New York Center
Sun 04:00:12 PM 40.4592 -74.2217 39° Northeast 496 571 35,000  Level New York Center
Sun 04:01:50 PM 40.6239 -74.0397 40° Northeast 478 550 35,000 -38 Level Boston Center
Sun 04:02:51 PM 40.7422 -73.9194 38° Northeast 483 556 34,900 -541 Descending Boston Center
Sun 04:03:52 PM 40.8581 -73.8286 31° Northeast 483 556 33,900 -1,017 Descending Boston Center
Sun 04:04:49 PM 40.9733 -73.7625 23° Northeast 464 534 32,900 -1,017 Descending Boston Center
Sun 04:05:50 PM 41.0903 -73.7428 North 433 498 31,900 -942 Descending Boston Center
Sun 04:06:50 PM 41.2069 -73.7422 360° North 415 478 31,000 -454 Descending Boston Center
Sun 04:07:49 PM 41.3194 -73.7475 358° North 415 478 31,000 -151 Level Boston Center
Sun 04:08:49 PM 41.4319 -73.7497 359° North 410 472 30,700 -645 Descending Boston Center
Sun 04:09:50 PM 41.5425 -73.7547 358° North 399 459 29,700 -992 Descending Boston Center
Sun 04:10:50 PM 41.6444 -73.7569 359° North 383 441 28,700 -1,250 Descending Boston Center
Sun 04:11:50 PM 41.7467 -73.7617 358° North 369 425 27,200 -1,835 Descending Boston Center
Sun 04:12:51 PM 41.8319 -73.7719 355° North 363 418 25,000 -1,109 Descending Boston Center
Sun 04:13:49 PM 41.9339 -73.7769 358° North 357 411 25,000  Level Boston Center
Sun 04:14:49 PM 42.0297 -73.7789 359° North 352 405 25,000 -298 Level Boston Center
Sun 04:15:50 PM 42.1278 -73.7808 359° North 346 398 24,400 -496 Descending Boston Center
Sun 04:16:50 PM 42.2156 -73.7606 10° North 346 398 24,000 -397 Descending Boston Center
Sun 04:17:51 PM 42.2922 -73.5992 57° Northeast 399 459 23,600 -756 Descending Boston Center
Sun 04:18:49 PM 42.3481 -73.4431 64° Northeast 416 479 22,500 -1,008 Descending Boston Center
Sun 04:19:50 PM 42.4014 -73.3061 62° Northeast 423 487 21,600 -744 Descending Boston Center
Sun 04:20:50 PM 42.4586 -73.1606 62° Northeast 437 503 21,000 -298 Descending Boston Center
Sun 04:21:51 PM 42.5136 -73.0231 61° Northeast 420 483 21,000  Level Boston Center
Sun 04:22:51 PM 42.5683 -72.8800 63° Northeast 420 483 21,000 -356 Level Boston Center
Sun 04:23:49 PM 42.6208 -72.7392 63° Northeast 420 483 20,300 -1,765 Descending Boston Center
Sun 04:24:50 PM 42.6631 -72.5756 71° East 414 476 17,500 -2,777 Descending Boston Center
Sun 04:25:50 PM 42.7006 -72.4231 71° East 414 476 14,700 -2,380 Descending Boston Center
Sun 04:26:51 PM 42.7317 -72.3017 71° East 414 476 12,700 -2,033 Descending Boston Center
Sun 04:27:51 PM 42.7689 -72.1347 73° East 393 452 10,600 -1,350 Descending Boston Center
Sun 04:28:51 PM 42.7978 -72.0269 70° East 356 410 10,000 -900 Descending Boston Center
Sun 04:29:51 PM 42.8222 -71.9108 74° East 301 346 8,800 -1,119 Descending Boston Center
Sun 04:30:49 PM 42.8175 -71.8117 94° East 286 329 7,800 -1,271 Descending Boston Center
Sun 04:31:49 PM 42.8086 -71.6986 96° East 286 329 6,300 -1,450 Descending Boston Center
Sun 04:32:49 PM 42.7975 -71.6025 99° East 276 318 4,900 -1,140 Descending Boston Center
Sun 04:33:50 PM 42.7778 -71.4925 104° East 276 318 4,000 -992 Descending Boston Center
Sun 04:34:50 PM 42.7647 -71.4106 102° East 261 300 2,900 -744 Descending Boston Center
Sun 04:35:51 PM 42.8078 -71.3533 44° Northeast 211 243 2,500 -353 Descending Boston Center
Sun 04:36:49 PM 42.8353 -71.3783 326° Northwest 118 136 2,200 -555 Descending Boston Center
Sun 04:37:50 PM 42.8708 -71.3975 338° Northwest 129 148 1,400 -744 Descending Boston Center
Sun 04:38:50 PM 42.9022 -71.4169 336° Northwest 134 154 700 -496 Descending Boston Center
Sun 04:39:51 PM 42.9336 -71.4389 333° Northwest 134 154 400 10,066 Descending Boston Center
Sun 04:40:51 PM 42.9653 -71.4669 327° Northwest 134 154 21,000 10,475 Climbing Boston Center
Sun 04:41:49 PM 42.9967 -71.4947 327° Northwest 134 154 21,000  Level Boston Center
Sun 04:43:00 PM 42.9328 -71.4358 180° South  Level Estimated

Login

Don't have an account? Register now (free) for customized features, flight alerts, and more!